• Em Portugal
  • Lista de países
  • Para 7 dias
  • Temperatura da água
  • Mapas de satélite
  • Mapa do tempo
  • Widgets de tempo
  • user-avatar
    Iniciar Sessão

    Previsão horária em Ghazni

    Hoje, 22 Junho, Sexta-feira

    Tempo Temperatura Precipitação Vento Pressão Humidade
    00:00 +23°C° 0 mm 4 m/s 586 mmHg 35%
    01:00 +22°C° 0 mm 3 m/s 586 mmHg 37%
    02:00 +21°C° 0 mm 3 m/s 586 mmHg 39%
    03:00 +21°C° 0 mm 3 m/s 585 mmHg 39%
    04:00 +20°C° 0 mm 3 m/s 585 mmHg 38%
    05:00 +20°C° 0 mm 3 m/s 585 mmHg 38%
    06:00 +20°C° 0 mm 3 m/s 585 mmHg 36%
    07:00 +21°C° 0 mm 3 m/s 586 mmHg 34%
    08:00 +22°C° 0 mm 3 m/s 586 mmHg 32%
    09:00 +24°C° 0 mm 3 m/s 586 mmHg 30%
    10:00 +25°C° 0 mm 2 m/s 587 mmHg 28%
    11:00 +26°C° 0 mm 1 m/s 587 mmHg 27%
    12:00 +27°C° 0 mm 2 m/s 587 mmHg 24%
    13:00 +28°C° 0 mm 3 m/s 587 mmHg 22%
    14:00 +29°C° 0 mm 3 m/s 587 mmHg 19%
    15:00 +29°C° 0 mm 4 m/s 587 mmHg 19%
    16:00 +29°C° 0 mm 4 m/s 587 mmHg 18%
    17:00 +29°C° 0 mm 4 m/s 586 mmHg 18%
    18:00 +28°C° 0 mm 4 m/s 586 mmHg 19%
    19:00 +28°C° 0 mm 4 m/s 586 mmHg 20%
    20:00 +27°C° 0 mm 3 m/s 586 mmHg 21%
    21:00 +26°C° 0,1 mm 4 m/s 586 mmHg 26%
    22:00 +25°C° 0,1 mm 4 m/s 586 mmHg 31%
    23:00 +23°C° 0,1 mm 5 m/s 586 mmHg 36%

    Amanhã, 23 Junho, Sábado

    Tempo Temperatura Precipitação Vento Pressão Humidade
    00:00 +22°C° 0,1 mm 4 m/s 586 mmHg 37%
    01:00 +21°C° 0,1 mm 4 m/s 585 mmHg 38%
    02:00 +20°C° 0,1 mm 3 m/s 585 mmHg 39%
    03:00 +20°C° 0 mm 3 m/s 585 mmHg 38%
    04:00 +20°C° 0 mm 3 m/s 585 mmHg 38%
    05:00 +19°C° 0 mm 3 m/s 585 mmHg 37%
    06:00 +20°C° 0 mm 3 m/s 585 mmHg 37%
    07:00 +21°C° 0 mm 3 m/s 586 mmHg 36%
    08:00 +21°C° 0 mm 3 m/s 586 mmHg 36%
    09:00 +22°C° 0 mm 3 m/s 586 mmHg 34%
    10:00 +24°C° 0 mm 2 m/s 587 mmHg 33%
    11:00 +25°C° 0 mm 2 m/s 587 mmHg 31%
    12:00 +26°C° 0 mm 2 m/s 587 mmHg 28%
    13:00 +27°C° 0 mm 3 m/s 587 mmHg 24%
    14:00 +28°C° 0 mm 3 m/s 587 mmHg 20%
    15:00 +29°C° 0 mm 3 m/s 587 mmHg 19%
    16:00 +29°C° 0 mm 3 m/s 587 mmHg 18%
    17:00 +29°C° 0 mm 3 m/s 587 mmHg 17%
    18:00 +28°C° 0 mm 3 m/s 586 mmHg 20%
    19:00 +28°C° 0 mm 3 m/s 586 mmHg 24%
    20:00 +27°C° 0 mm 2 m/s 586 mmHg 27%
    21:00 +26°C° 0 mm 3 m/s 586 mmHg 32%
    22:00 +25°C° 0 mm 4 m/s 586 mmHg 37%
    23:00 +23°C° 0 mm 5 m/s 586 mmHg 43%

    Depois de amanhã, 24 Junho, Domingo

    Tempo Temperatura Precipitação Vento Pressão Humidade
    00:00 +22°C° 0,2 mm 4 m/s 586 mmHg 46%
    01:00 +21°C° 0,2 mm 3 m/s 585 mmHg 50%
    02:00 +21°C° 0,2 mm 2 m/s 585 mmHg 54%
    03:00 +20°C° 0,1 mm 2 m/s 585 mmHg 54%
    04:00 +20°C° 0,1 mm 3 m/s 585 mmHg 53%
    05:00 +19°C° 0,1 mm 3 m/s 585 mmHg 53%
    06:00 +20°C° 0 mm 3 m/s 585 mmHg 48%
    07:00 +21°C° 0 mm 3 m/s 586 mmHg 44%
    08:00 +22°C° 0 mm 3 m/s 586 mmHg 40%
    09:00 +24°C° 0 mm 3 m/s 586 mmHg 35%
    10:00 +25°C° 0 mm 2 m/s 587 mmHg 31%
    11:00 +26°C° 0 mm 1 m/s 587 mmHg 27%
    12:00 +27°C° 0 mm 1 m/s 587 mmHg 24%
    13:00 +28°C° 0 mm 1 m/s 587 mmHg 22%
    14:00 +28°C° 0 mm 1 m/s 587 mmHg 20%
    15:00 +28°C° 0 mm 2 m/s 586 mmHg 20%
    16:00 +29°C° 0 mm 3 m/s 586 mmHg 20%
    17:00 +29°C° 0 mm 3 m/s 586 mmHg 21%
    18:00 +28°C° 0 mm 4 m/s 586 mmHg 22%
    19:00 +27°C° 0 mm 4 m/s 586 mmHg 24%
    20:00 +27°C° 0 mm 4 m/s 586 mmHg 26%
    21:00 +26°C° 0 mm 4 m/s 586 mmHg 26%
    22:00 +26°C° 0 mm 4 m/s 587 mmHg 26%
    23:00 +25°C° 0 mm 5 m/s 587 mmHg 27%

    25 Junho, Segunda-feira

    Tempo Temperatura Precipitação Vento Pressão Humidade
    00:00 +23°C° 0 mm 5 m/s 586 mmHg 26%
    01:00 +22°C° 0 mm 5 m/s 586 mmHg 25%
    02:00 +21°C° 0 mm 5 m/s 585 mmHg 25%
    03:00 +21°C° 0 mm 5 m/s 585 mmHg 26%
    04:00 +20°C° 0 mm 4 m/s 585 mmHg 27%
    05:00 +19°C° 0 mm 4 m/s 585 mmHg 28%
    06:00 +20°C° 0 mm 4 m/s 585 mmHg 26%
    07:00 +21°C° 0 mm 4 m/s 586 mmHg 25%
    08:00 +22°C° 0 mm 4 m/s 586 mmHg 23%
    09:00 +25°C° 0 mm 4 m/s 587 mmHg 20%
    10:00 +26°C° 0 mm 4 m/s 587 mmHg 18%
    11:00 +27°C° 0 mm 3 m/s 587 mmHg 16%
    12:00 +28°C° 0 mm 3 m/s 587 mmHg 14%
    13:00 +29°C° 0 mm 2 m/s 587 mmHg 13%
    14:00 +30°C° 0 mm 2 m/s 587 mmHg 11%
    15:00 +30°C° 0 mm 2 m/s 586 mmHg 11%
    16:00 +30°C° 0 mm 2 m/s 586 mmHg 10%
    17:00 +30°C° 0 mm 2 m/s 586 mmHg 9%
    18:00 +30°C° 0 mm 2 m/s 586 mmHg 10%
    19:00 +29°C° 0 mm 2 m/s 586 mmHg 11%
    20:00 +28°C° 0 mm 2 m/s 586 mmHg 12%
    21:00 +27°C° 0 mm 3 m/s 586 mmHg 14%
    22:00 +26°C° 0 mm 3 m/s 586 mmHg 16%
    23:00 +25°C° 0 mm 4 m/s 586 mmHg 19%

    26 Junho, Terça-feira

    Tempo Temperatura Precipitação Vento Pressão Humidade
    00:00 +24°C° 0 mm 3 m/s 585 mmHg 20%
    01:00 +22°C° 0 mm 3 m/s 585 mmHg 22%
    02:00 +21°C° 0 mm 2 m/s 584 mmHg 24%
    03:00 +21°C° 0 mm 3 m/s 584 mmHg 24%
    04:00 +20°C° 0 mm 3 m/s 584 mmHg 25%
    05:00 +19°C° 0 mm 3 m/s 584 mmHg 26%
    06:00 +20°C° 0 mm 4 m/s 584 mmHg 24%
    07:00 +21°C° 0 mm 4 m/s 585 mmHg 22%
    08:00 +22°C° 0 mm 5 m/s 585 mmHg 19%
    09:00 +23°C° 0 mm 4 m/s 586 mmHg 18%
    10:00 +26°C° 0 mm 4 m/s 586 mmHg 16%
    11:00 +27°C° 0 mm 4 m/s 586 mmHg 14%
    12:00 +28°C° 0 mm 3 m/s 586 mmHg 14%
    13:00 +29°C° 0 mm 2 m/s 586 mmHg 14%
    14:00 +30°C° 0 mm 2 m/s 586 mmHg 14%
    15:00 +29°C° 0,1 mm 3 m/s 586 mmHg 18%
    16:00 +29°C° 0,1 mm 4 m/s 585 mmHg 21%
    17:00 +28°C° 0,1 mm 6 m/s 585 mmHg 25%
    18:00 +27°C° 0,2 mm 5 m/s 585 mmHg 29%
    19:00 +25°C° 0,2 mm 4 m/s 585 mmHg 33%
    20:00 +24°C° 0,2 mm 3 m/s 585 mmHg 38%
    21:00 +24°C° 0,1 mm 3 m/s 585 mmHg 38%
    22:00 +24°C° 0,1 mm 2 m/s 585 mmHg 39%
    23:00 +23°C° 0,1 mm 2 m/s 585 mmHg 39%

    27 Junho, Quarta-feira

    Tempo Temperatura Precipitação Vento Pressão Humidade
    00:00 +23°C° 0 mm 2 m/s 585 mmHg 39%
    01:00 +23°C° 0 mm 2 m/s 585 mmHg 40%
    02:00 +23°C° 0 mm 2 m/s 585 mmHg 40%
    03:00 +21°C° 0 mm 2 m/s 584 mmHg 39%
    04:00 +21°C° 0 mm 2 m/s 584 mmHg 39%
    05:00 +20°C° 0 mm 2 m/s 584 mmHg 38%
    06:00 +21°C° 0 mm 2 m/s 585 mmHg 33%
    07:00 +22°C° 0 mm 3 m/s 585 mmHg 27%
    08:00 +24°C° 0 mm 3 m/s 586 mmHg 22%
    09:00 +25°C° 0 mm 3 m/s 586 mmHg 21%
    10:00 +26°C° 0 mm 2 m/s 586 mmHg 19%
    11:00 +28°C° 0 mm 2 m/s 586 mmHg 18%
    12:00 +28°C° 0 mm 2 m/s 586 mmHg 17%
    13:00 +29°C° 0 mm 2 m/s 586 mmHg 17%
    14:00 +29°C° 0 mm 2 m/s 586 mmHg 17%
    15:00 +29°C° 0,3 mm 3 m/s 586 mmHg 20%
    16:00 +28°C° 0,3 mm 4 m/s 585 mmHg 24%
    17:00 +27°C° 0,3 mm 5 m/s 585 mmHg 28%
    18:00 +26°C° 0 mm 4 m/s 585 mmHg 29%
    19:00 +26°C° 0 mm 3 m/s 585 mmHg 30%
    20:00 +26°C° 0 mm 2 m/s 585 mmHg 31%
    21:00 +25°C° 0 mm 2 m/s 585 mmHg 34%
    22:00 +24°C° 0 mm 2 m/s 585 mmHg 37%
    23:00 +24°C° 0 mm 2 m/s 585 mmHg 40%
    Mostrar mais